FHELE LFOB-LFRS

Flight info

Callsign FHELE
Flight time N/A
Altitude 27000
Route LGL UT176 ROLEN UZ15 ARDOD A5 VALAX
Aircraft TBM8/L-SDFGRWY/S

Departure

Time 2026-04-21 13:00
Airport Beauvais-Tillé airport (LFOB)

Arrival

Time N/A
Airport Nantes Atlantique Airport (LFRS)
Time Latitude Longitude Altitude Speed Heading
2026-04-21 12:27 49.45879 2.10936 331 ft 0 kts 148°
2026-04-21 12:54 49.45865 2.10950 329 ft 7 kts 146°
2026-04-21 12:55 49.45837 2.10981 329 ft 4 kts 142°
2026-04-21 12:55 49.45820 2.10994 331 ft 1 kts 169°
2026-04-21 12:55 49.45796 2.10987 331 ft 13 kts 210°
2026-04-21 12:56 49.45758 2.10953 331 ft 0 kts 206°
2026-04-21 12:58 49.45748 2.10945 331 ft 7 kts 208°
2026-04-21 12:58 49.45676 2.10886 332 ft 14 kts 208°
2026-04-21 12:59 49.45612 2.10886 332 ft 9 kts 126°
2026-04-21 12:59 49.45605 2.10902 333 ft 0 kts 122°
2026-04-21 12:59 49.45591 2.10934 332 ft 18 kts 122°
2026-04-21 12:59 49.45413 2.11343 334 ft 73 kts 124°
2026-04-21 13:00 49.45049 2.12145 403 ft 107 kts 124°
2026-04-21 13:00 49.44622 2.12842 582 ft 118 kts 122°
2026-04-21 13:00 49.44140 2.13857 954 ft 116 kts 108°
2026-04-21 13:00 49.44263 2.14895 1584 ft 99 kts 50°
2026-04-21 13:01 49.44708 2.15693 2224 ft 102 kts 39°
2026-04-21 13:01 49.45416 2.16053 2750 ft 114 kts 10°
2026-04-21 13:01 49.46182 2.15693 3341 ft 122 kts 332°
2026-04-21 13:01 49.46699 2.14524 3654 ft 151 kts 290°
2026-04-21 13:02 49.46978 2.12951 4118 ft 153 kts 292°
2026-04-21 13:02 49.47314 2.11384 4602 ft 155 kts 292°
2026-04-21 13:02 49.47999 2.08224 5590 ft 157 kts 292°
2026-04-21 13:03 49.48342 2.06632 6137 ft 157 kts 291°
2026-04-21 13:03 49.48677 2.05028 6657 ft 159 kts 286°
2026-04-21 13:03 49.48608 2.03344 7158 ft 161 kts 250°
2026-04-21 13:03 49.48022 2.01902 7610 ft 160 kts 219°
2026-04-21 13:04 49.47119 2.00952 8024 ft 161 kts 209°
2026-04-21 13:04 49.46279 2.00083 8431 ft 164 kts 209°
2026-04-21 13:04 49.45930 1.99730 8553 ft 167 kts 209°
2026-04-21 13:04 49.44956 1.98755 9052 ft 166 kts 211°
2026-04-21 13:05 49.44004 1.97797 9577 ft 163 kts 211°
2026-04-21 13:05 49.43024 1.96830 9925 ft 170 kts 212°
2026-04-21 13:05 49.42041 1.95844 10404 ft 169 kts 212°
2026-04-21 13:05 49.41044 1.94844 10776 ft 172 kts 214°
2026-04-21 13:06 49.40056 1.93849 11204 ft 170 kts 213°
2026-04-21 13:06 49.39073 1.92876 11663 ft 168 kts 214°
2026-04-21 13:06 49.38081 1.91868 12009 ft 173 kts 221°
2026-04-21 13:06 49.37103 1.90815 12463 ft 172 kts 213°
2026-04-21 13:07 49.36085 1.89880 12921 ft 169 kts 214°
2026-04-21 13:07 49.35095 1.88907 13343 ft 169 kts 215°
2026-04-21 13:07 49.34098 1.87919 13705 ft 173 kts 216°
2026-04-21 13:07 49.33086 1.86908 14058 ft 175 kts 218°
2026-04-21 13:08 49.32413 1.86227 14303 ft 175 kts 217°
2026-04-21 13:08 49.31055 1.84879 14807 ft 174 kts 218°
2026-04-21 13:08 49.30044 1.83877 15154 ft 176 kts 219°
2026-04-21 13:08 49.29017 1.82857 15522 ft 176 kts 219°
2026-04-21 13:09 49.27999 1.81838 15901 ft 174 kts 220°
2026-04-21 13:09 49.26977 1.80826 16261 ft 176 kts 220°
2026-04-21 13:09 49.25949 1.79807 16616 ft 177 kts 221°
2026-04-21 13:09 49.24917 1.78777 16965 ft 178 kts 221°
2026-04-21 13:10 49.23877 1.77749 17304 ft 178 kts 222°
2026-04-21 13:10 49.22833 1.76714 17636 ft 179 kts 223°
2026-04-21 13:10 49.21950 1.75468 17979 ft 166 kts 248°
2026-04-21 13:10 49.21416 1.73943 18347 ft 162 kts 253°
2026-04-21 13:11 49.20884 1.72440 18657 ft 163 kts 253°
2026-04-21 13:11 49.20353 1.70911 18968 ft 162 kts 253°
2026-04-21 13:11 49.19821 1.69392 19287 ft 162 kts 254°
2026-04-21 13:11 49.19291 1.67877 19596 ft 161 kts 254°
2026-04-21 13:12 49.18763 1.66369 19918 ft 161 kts 255°
2026-04-21 13:12 49.18238 1.64865 20198 ft 160 kts 255°
2026-04-21 13:12 49.17716 1.63361 20500 ft 160 kts 255°
2026-04-21 13:12 49.17192 1.61865 20816 ft 159 kts 255°
2026-04-21 13:13 49.16668 1.60376 21119 ft 159 kts 255°
2026-04-21 13:13 49.16154 1.58910 21408 ft 159 kts 256°
2026-04-21 13:13 49.15635 1.57428 21714 ft 158 kts 256°
2026-04-21 13:13 49.15116 1.55951 22006 ft 157 kts 256°
2026-04-21 13:14 49.14600 1.54479 22280 ft 157 kts 256°
2026-04-21 13:14 49.14084 1.53007 22568 ft 157 kts 257°
2026-04-21 13:14 49.13571 1.51538 22874 ft 157 kts 257°
2026-04-21 13:14 49.13054 1.50076 23170 ft 156 kts 257°
2026-04-21 13:15 49.12541 1.48618 23431 ft 156 kts 257°
2026-04-21 13:15 49.12027 1.47161 23716 ft 156 kts 257°
2026-04-21 13:15 49.11523 1.45726 23950 ft 156 kts 257°
2026-04-21 13:15 49.11009 1.44267 24153 ft 156 kts 257°
2026-04-21 13:16 49.10495 1.42803 24354 ft 157 kts 257°
2026-04-21 13:16 49.09975 1.41332 24549 ft 158 kts 257°
2026-04-21 13:16 49.09454 1.39858 24747 ft 158 kts 257°
2026-04-21 13:16 49.08931 1.38376 24938 ft 159 kts 257°
2026-04-21 13:17 49.08407 1.36892 25136 ft 159 kts 257°
2026-04-21 13:17 49.07887 1.35420 25321 ft 160 kts 257°
2026-04-21 13:17 49.07357 1.33923 25506 ft 161 kts 256°
2026-04-21 13:17 49.06823 1.32413 25670 ft 162 kts 256°
2026-04-21 13:18 49.06285 1.30891 25821 ft 164 kts 254°
2026-04-21 13:18 49.05740 1.29353 26001 ft 165 kts 254°
2026-04-21 13:18 49.05191 1.27807 26170 ft 166 kts 254°
2026-04-21 13:18 49.04641 1.26258 26351 ft 166 kts 254°
2026-04-21 13:19 49.04090 1.24705 26530 ft 167 kts 254°
2026-04-21 13:19 49.03537 1.23149 26715 ft 167 kts 254°
2026-04-21 13:19 49.02990 1.21610 26902 ft 168 kts 254°
2026-04-21 13:19 49.02450 1.20037 27095 ft 168 kts 255°
2026-04-21 13:20 49.02083 1.18967 27179 ft 171 kts 255°
2026-04-21 13:20 49.01331 1.16750 27188 ft 185 kts 253°
2026-04-21 13:20 49.00718 1.14967 27195 ft 195 kts 253°
2026-04-21 13:20 49.00068 1.13091 27195 ft 205 kts 252°
2026-04-21 13:21 48.99385 1.11122 27195 ft 215 kts 252°
2026-04-21 13:21 48.98674 1.09072 27194 ft 223 kts 252°
2026-04-21 13:21 48.97936 1.06945 27193 ft 231 kts 251°
2026-04-21 13:21 48.97185 1.04783 27190 ft 237 kts 251°
2026-04-21 13:22 48.96406 1.02538 27189 ft 243 kts 251°
2026-04-21 13:22 48.95608 1.00242 27186 ft 248 kts 251°
2026-04-21 13:22 48.94793 0.97900 27186 ft 252 kts 251°
2026-04-21 13:22 48.93966 0.95524 27185 ft 256 kts 251°
2026-04-21 13:23 48.93127 0.93112 27171 ft 260 kts 251°
2026-04-21 13:23 48.92277 0.90672 27170 ft 263 kts 250°
2026-04-21 13:23 48.91425 0.88232 27170 ft 265 kts 250°
2026-04-21 13:23 48.90556 0.85744 27151 ft 268 kts 250°
2026-04-21 13:24 48.89680 0.83239 27153 ft 269 kts 250°
2026-04-21 13:24 48.88798 0.80719 27154 ft 271 kts 250°
2026-04-21 13:24 48.87911 0.78186 27155 ft 272 kts 250°
2026-04-21 13:24 48.87020 0.75644 27156 ft 273 kts 250°
2026-04-21 13:25 48.86125 0.73090 27155 ft 274 kts 250°
2026-04-21 13:25 48.85225 0.70532 27155 ft 275 kts 250°
2026-04-21 13:25 48.84336 0.68001 27153 ft 276 kts 249°
2026-04-21 13:25 48.83431 0.65431 27154 ft 276 kts 249°
2026-04-21 13:26 48.82525 0.62858 27154 ft 277 kts 249°
2026-04-21 13:26 48.81616 0.60281 27149 ft 277 kts 249°
2026-04-21 13:26 48.80706 0.57703 27149 ft 277 kts 249°
2026-04-21 13:26 48.79794 0.55124 27149 ft 278 kts 249°
2026-04-21 13:27 48.79180 0.53419 27152 ft 280 kts 247°
2026-04-21 13:27 48.77955 0.51059 27157 ft 287 kts 237°
2026-04-21 13:27 48.76649 0.48771 27157 ft 287 kts 238°
2026-04-21 13:27 48.74950 0.45707 27158 ft 287 kts 238°
2026-04-21 13:28 48.73658 0.43400 27131 ft 287 kts 238°
2026-04-21 13:28 48.72361 0.41101 27136 ft 287 kts 238°
2026-04-21 13:28 48.71502 0.39577 27136 ft 287 kts 238°
2026-04-21 13:28 48.70207 0.37272 27137 ft 288 kts 238°
2026-04-21 13:29 48.68908 0.34967 27137 ft 288 kts 238°
2026-04-21 13:29 48.67609 0.32663 27135 ft 288 kts 238°
2026-04-21 13:29 48.65868 0.29579 27135 ft 288 kts 237°
2026-04-21 13:29 48.64585 0.27308 27130 ft 287 kts 237°
2026-04-21 13:30 48.63286 0.25011 27132 ft 287 kts 237°
2026-04-21 13:30 48.62408 0.23458 27132 ft 288 kts 237°
2026-04-21 13:30 48.61124 0.21191 27132 ft 288 kts 237°
2026-04-21 13:30 48.59823 0.18895 27132 ft 288 kts 237°
2026-04-21 13:31 48.58520 0.16598 27132 ft 288 kts 237°
2026-04-21 13:31 48.57070 0.14457 27136 ft 295 kts 228°
2026-04-21 13:31 48.55487 0.12482 27131 ft 295 kts 229°
2026-04-21 13:31 48.53923 0.10479 27130 ft 295 kts 229°
2026-04-21 13:32 48.52364 0.08469 27136 ft 295 kts 229°
2026-04-21 13:32 48.50798 0.06468 27137 ft 295 kts 229°
2026-04-21 13:32 48.49227 0.04472 27136 ft 295 kts 229°
2026-04-21 13:32 48.47680 0.02504 27131 ft 295 kts 229°
2026-04-21 13:33 48.46113 0.00505 27130 ft 295 kts 229°
2026-04-21 13:33 48.44544 -0.01493 27116 ft 295 kts 228°
2026-04-21 13:33 48.42977 -0.03482 27123 ft 294 kts 228°
2026-04-21 13:33 48.41412 -0.05469 27123 ft 294 kts 228°
2026-04-21 13:34 48.39848 -0.07454 27126 ft 294 kts 228°
2026-04-21 13:34 48.38283 -0.09439 27121 ft 294 kts 228°
2026-04-21 13:34 48.36714 -0.11425 27120 ft 294 kts 228°
2026-04-21 13:34 48.35148 -0.13406 27120 ft 294 kts 228°
2026-04-21 13:35 48.33603 -0.15362 27114 ft 294 kts 228°
2026-04-21 13:35 48.32035 -0.17342 27114 ft 294 kts 228°
2026-04-21 13:35 48.30468 -0.19321 27115 ft 294 kts 228°
2026-04-21 13:35 48.28900 -0.21299 27114 ft 295 kts 228°
2026-04-21 13:36 48.27330 -0.23277 27115 ft 294 kts 228°
2026-04-21 13:36 48.25761 -0.25254 27116 ft 295 kts 228°
2026-04-21 13:36 48.24191 -0.27230 27115 ft 295 kts 228°
2026-04-21 13:36 48.22638 -0.29178 27115 ft 295 kts 228°
2026-04-21 13:37 48.21067 -0.31153 27106 ft 295 kts 227°
2026-04-21 13:37 48.19496 -0.33126 27105 ft 295 kts 227°
2026-04-21 13:37 48.17920 -0.35101 27115 ft 296 kts 227°
2026-04-21 13:37 48.16341 -0.37079 27109 ft 296 kts 227°
2026-04-21 13:38 48.14761 -0.39058 27100 ft 297 kts 227°
2026-04-21 13:38 48.13176 -0.41037 27102 ft 297 kts 227°
2026-04-21 13:38 48.11592 -0.43019 27095 ft 297 kts 227°
2026-04-21 13:38 48.10007 -0.44997 27102 ft 297 kts 227°
2026-04-21 13:39 48.08440 -0.46951 27097 ft 297 kts 227°
2026-04-21 13:39 48.06853 -0.48931 27096 ft 297 kts 227°
2026-04-21 13:39 48.05264 -0.50909 27094 ft 297 kts 227°
2026-04-21 13:39 48.03675 -0.52885 27094 ft 297 kts 227°
2026-04-21 13:40 48.02087 -0.54862 27099 ft 297 kts 227°
2026-04-21 13:40 48.00498 -0.56838 27092 ft 297 kts 227°
2026-04-21 13:40 47.98393 -0.59446 27098 ft 297 kts 227°
2026-04-21 13:40 47.97321 -0.60776 27093 ft 297 kts 227°
2026-04-21 13:41 47.95731 -0.62747 27091 ft 297 kts 227°
2026-04-21 13:41 47.94141 -0.64716 27092 ft 297 kts 227°
2026-04-21 13:41 47.92571 -0.66659 27091 ft 297 kts 227°
2026-04-21 13:41 47.90979 -0.68627 27091 ft 297 kts 227°
2026-04-21 13:42 47.89385 -0.70596 27103 ft 298 kts 227°
2026-04-21 13:42 47.87792 -0.72561 27090 ft 298 kts 227°
2026-04-21 13:42 47.86198 -0.74528 27089 ft 298 kts 227°
2026-04-21 13:42 47.84603 -0.76492 27088 ft 298 kts 227°
2026-04-21 13:43 47.83007 -0.78456 27088 ft 298 kts 227°
2026-04-21 13:43 47.81412 -0.80419 27085 ft 298 kts 227°
2026-04-21 13:43 47.79838 -0.82356 27056 ft 298 kts 227°
2026-04-21 13:43 47.78244 -0.84311 27058 ft 297 kts 227°
2026-04-21 13:44 47.76652 -0.86264 27072 ft 297 kts 226°
2026-04-21 13:44 47.75059 -0.88217 27072 ft 297 kts 226°
2026-04-21 13:44 47.73468 -0.90168 27073 ft 297 kts 226°